sat.trackr.live / text

‹ back to catalog

STARLINK-36705

NORAD 67712 · 2026-025V

PAYLOAD ACTIVE UNKNOWN

§ Identity

Operator
Country
US
Launch date
2026-02-07
Launch site
AFWTR
Launch vehicle
Mass (kg)
RCS (m²)

Purposes: comms

External: N2YO · Heavens-Above · Gunter

§ Orbital elements

Epoch: 2026-05-25T01:27:38.359296Z

Period
93.91 min
Inclination
97.2860°
Eccentricity
0.0000334
Mean motion
15.33456910 rev/d
Perigee alt
465.3 km
Apogee alt
465.7 km
Semi-major
6,843.6 km
B*
6.7387e-4
RAAN
256.6310°
Arg perigee
53.9122°
Mean anomaly
306.2151°
Rev number
1,771

§ Raw data

STARLINK-367051 67712U 26025V   26145.06086064  .00021751  00000+0  67387-3 0  99952 67712  97.2860 256.6310 0000334  53.9122 306.2151 15.33456910 17713

JSON: /api/v1/satellites/67712 · /tle

For live sub-satellite position, see the globe view (requires WebGL).

§ Visibility from observer

Set your observer location to see the next 7 days of passes ≥ 10°. The values pass through the URL so the page stays shareable.

No JS? Fill the form by hand. The geolocation button needs JavaScript.